Change the Weather History Date:

Monday, February 4, 2013

  Actual Average Record
Temperature  
Mean Temperature 36 °F 31 °F  
Max Temperature 50 °F 43 °F 64 °F (1963)
Min Temperature 21 °F 18 °F -16 °F (1955)
Degree Days  
Heating Degree Days 29 34  
Month to date heating degree days 116 136  
Since 1 July heating degree days 3953 4052  
Cooling Degree Days 0 0  
Month to date cooling degree days 0 0  
Year to date cooling degree days 0 0  
Moisture  
Dew Point 23 °F    
Average Humidity 64    
Maximum Humidity 92    
Minimum Humidity 36    
Precipitation  
Precipitation 0.00 in 0.07 in 1.44 in (1958)
Month to date precipitation T 0.28  
Year to date precipitation 2.64 2.33  
Snow  
Snow 0.00 in 0.80 in 12.00 in (2004)
Month to date snowfall T 3.2  
Since 1 July snowfall 33.0 55.5  
Snow Depth 0.00 in    
Sea Level Pressure  
Sea Level Pressure 30.09 in    
Wind  
Wind Speed 4 mph (ENE)    
Max Wind Speed 15 mph    
Max Gust Speed 18 mph    
Visibility 10 miles    
Events      
T = Trace of Precipitation, MM = Missing Value Source: NWS Daily Summary

Daily Weather History Graph

Daily Weather History Graph

Search for Another Location

Airport or City:

Trip Planner

Search our weather history database for the weather conditions in past years. The results will help you decide how hot, cold, wet, or windy it might be!

Date:

Astronomy

Feb. 04, 2013 Rise Set
Actual Time 7:23 AM MST 5:58 PM MST
Civil Twilight 6:56 AM MST 6:25 PM MST
Nautical Twilight 6:26 AM MST 6:55 PM MST
Astronomical Twilight 5:56 AM MST 7:25 PM MST
Moon 2:00 AM MST (2/4) 12:28 PM MST (2/4)
Length of Visible Light 11h 28m
Length of Day
10h 35m
Last Quarter, 36% of the Moon is Illuminated
Feb 4
Last Quarter
Feb 10
New
Feb 17
First Quarter
Feb 25
Full
Mar 4
Last Quarter

Hourly Weather History & Observations

Time (MST) Temp. Windchill Dew Point Humidity Pressure Visibility Wind Dir Wind Speed Gust Speed Precip Events Conditions
12:57 AM 30.0 °F 25.2 °F 28.0 °F 92% 30.05 in 10.0 mi East 4.6 mph - N/A   Clear
1:57 AM 28.9 °F 23.9 °F 27.0 °F 92% 30.05 in 10.0 mi NE 4.6 mph - N/A   Clear
3:57 AM 25.0 °F - 23.0 °F 92% 30.08 in 10.0 mi Calm Calm - N/A   Clear
4:57 AM 24.1 °F - 21.0 °F 88% 30.11 in 10.0 mi Calm Calm - N/A   Clear
5:57 AM 21.9 °F - 19.9 °F 92% 30.11 in 10.0 mi Calm Calm - N/A   Clear
6:57 AM 21.0 °F - 19.0 °F 92% 30.12 in 10.0 mi Calm Calm - N/A   Clear
7:57 AM 25.0 °F - 21.9 °F 88% 30.12 in 10.0 mi Calm Calm - N/A   Clear
8:57 AM 35.1 °F 28.6 °F 27.0 °F 72% 30.09 in 10.0 mi East 8.1 mph - N/A   Clear
9:57 AM 39.0 °F 31.0 °F 27.0 °F 62% 30.09 in 10.0 mi ENE 13.8 mph - N/A   Clear
10:57 AM 43.0 °F 36.4 °F 26.1 °F 51% 30.10 in 10.0 mi ENE 12.7 mph - N/A   Clear
11:57 AM 46.0 °F 41.9 °F 25.0 °F 44% 30.09 in 10.0 mi East 8.1 mph 17.3 mph N/A   Clear
12:57 PM 46.0 °F 42.5 °F 26.1 °F 46% 30.07 in 10.0 mi East 6.9 mph - N/A   Clear
1:57 PM 48.0 °F - 26.1 °F 42% 30.04 in 10.0 mi NE 8.1 mph - N/A   Clear
2:57 PM 48.9 °F - 24.1 °F 38% 30.04 in 10.0 mi NE 8.1 mph - N/A   Clear
3:57 PM 50.0 °F - 24.1 °F 36% 30.03 in 10.0 mi NE 5.8 mph - N/A   Clear
4:57 PM 48.0 °F - 24.1 °F 39% 30.04 in 10.0 mi East 6.9 mph - N/A   Clear
5:57 PM 44.1 °F 42.5 °F 21.9 °F 42% 30.08 in 10.0 mi East 3.5 mph - N/A   Clear
6:57 PM 35.1 °F - 21.9 °F 59% 30.14 in 10.0 mi Calm Calm - N/A   Clear
7:57 PM 30.0 °F - 21.9 °F 72% 30.15 in 10.0 mi Calm Calm - N/A   Clear
8:57 PM 27.0 °F - 19.9 °F 75% 30.13 in 10.0 mi Calm Calm - N/A   Clear
9:57 PM 27.0 °F - 19.9 °F 75% 30.12 in 10.0 mi Calm Calm - N/A   Clear
10:57 PM 25.0 °F - 19.9 °F 81% 30.10 in 10.0 mi Calm Calm - N/A   Clear
11:57 PM 24.1 °F - 19.0 °F 81% 30.08 in 10.0 mi Calm Calm - N/A   Clear